Location: Unspecified
(44.4377°N, 88.0525°W)
Time: 14:26:52
(UTC-05:00)

ISS - Pass Details

Date: 25 March 2018
Orbit: 402 x 407 km, 51.6° (Epoch: 27 April)

Event Time Altitude Azimuth Distance (km) Brightness Sun altitude
Rises 20:27:36 0° 229° (SW) 2,322 0.5 -14.2°
Reaches altitude 10° 20:29:41 10° 226° (SW) 1,466 -0.6 -14.6°
Maximum altitude 20:32:56 62° 145° (SE) 465 -3.8 -15.1°
Enters shadow 20:34:16 31° 76° (ENE) 737 -3.0 -15.4°
